Time,TemperatureF,DewpointF,PressureIn,WindDirection,WindDirectionDegrees,WindSpeedMPH,WindSpeedGustMPH,Humidity,HourlyPrecipIn,Conditions,Clouds,dailyrainin,SoftwareType,DateUTC
2013-06-17 00:02:00,70.0,66.0,29.88,NNW,342,0.0,-999.0,86,-99.99,,,-99.99,,2013-06-17 04:02:00,
2013-06-17 00:12:00,70.0,66.0,29.89,NNW,342,0.0,-999.0,86,-99.99,,,-99.99,,2013-06-17 04:12:00,
2013-06-17 00:22:00,70.0,66.0,29.88,SW,225,0.0,-999.0,87,-99.99,,,-99.99,,2013-06-17 04:22:00,
2013-06-17 00:34:00,70.0,66.0,29.88,SW,225,0.0,-999.0,87,-99.99,,,-99.99,,2013-06-17 04:34:00,
2013-06-17 00:43:00,70.0,66.0,29.89,SW,225,0.0,-999.0,87,-99.99,,,-99.99,,2013-06-17 04:43:00,
2013-06-17 00:53:00,69.0,65.0,29.89,SW,225,0.0,-999.0,88,-99.99,,,-99.99,,2013-06-17 04:53:00,
2013-06-17 01:02:00,69.0,65.0,29.89,SW,225,0.0,-999.0,88,-99.99,,,-99.99,,2013-06-17 05:02:00,
2013-06-17 01:12:00,69.0,65.0,29.90,SW,225,0.0,-999.0,88,-99.99,,,-99.99,,2013-06-17 05:12:00,
2013-06-17 01:22:00,69.0,65.0,29.90,SW,225,0.0,-999.0,88,-99.99,,,-99.99,,2013-06-17 05:22:00,
2013-06-17 01:33:00,69.0,65.0,29.89,SW,225,0.0,-999.0,88,-99.99,,,-99.99,,2013-06-17 05:33:00,
2013-06-17 01:44:00,69.0,65.0,29.89,SW,225,0.0,-999.0,88,-99.99,,,-99.99,,2013-06-17 05:44:00,
2013-06-17 01:53:00,69.0,65.0,29.89,WNW,298,0.0,-999.0,88,-99.99,,,-99.99,,2013-06-17 05:53:00,
2013-06-17 02:02:00,69.0,65.0,29.90,WNW,298,0.0,-999.0,88,-99.99,,,-99.99,,2013-06-17 06:02:00,
2013-06-17 02:12:00,69.0,65.0,29.89,WNW,298,0.0,-999.0,88,-99.99,,,-99.99,,2013-06-17 06:12:00,
2013-06-17 02:22:00,69.0,65.0,29.90,WNW,298,0.0,-999.0,88,-99.99,,,-99.99,,2013-06-17 06:22:00,
2013-06-17 02:33:00,69.0,65.0,29.90,WNW,298,0.0,-999.0,88,-99.99,,,-99.99,,2013-06-17 06:33:00,
2013-06-17 02:43:00,69.0,65.0,29.90,WNW,298,0.0,-999.0,87,-99.99,,,-99.99,,2013-06-17 06:43:00,
2013-06-17 02:53:00,69.0,65.0,29.89,WNW,298,0.0,-999.0,87,-99.99,,,-99.99,,2013-06-17 06:53:00,
2013-06-17 03:02:00,69.0,65.0,29.89,WNW,298,0.0,-999.0,87,-99.99,,,-99.99,,2013-06-17 07:02:00,
2013-06-17 03:12:00,69.0,65.0,29.89,WNW,298,0.0,-999.0,87,-99.99,,,-99.99,,2013-06-17 07:12:00,
2013-06-17 03:22:00,69.0,65.0,29.89,WNW,298,0.0,-999.0,87,-99.99,,,-99.99,,2013-06-17 07:22:00,
2013-06-17 03:33:00,69.0,65.0,29.89,WNW,298,0.0,-999.0,87,-99.99,,,-99.99,,2013-06-17 07:33:00,
2013-06-17 03:43:00,69.0,65.0,29.89,WNW,298,0.0,-999.0,87,-99.99,,,-99.99,,2013-06-17 07:43:00,
2013-06-17 03:53:00,69.0,65.0,29.89,WNW,298,0.0,-999.0,87,-99.99,,,-99.99,,2013-06-17 07:53:00,
2013-06-17 04:02:00,68.0,64.0,29.89,WNW,298,0.0,-999.0,88,-99.99,,,-99.99,,2013-06-17 08:02:00,
2013-06-17 04:12:00,68.0,64.0,29.90,WNW,298,0.0,-999.0,88,-99.99,,,-99.99,,2013-06-17 08:12:00,
2013-06-17 04:22:00,68.0,65.0,29.90,WNW,298,0.0,-999.0,89,-99.99,,,-99.99,,2013-06-17 08:22:00,
2013-06-17 04:34:00,68.0,65.0,29.90,WNW,298,0.0,-999.0,89,-99.99,,,-99.99,,2013-06-17 08:34:00,
2013-06-17 04:43:00,68.0,65.0,29.91,WNW,298,0.0,-999.0,89,-99.99,,,-99.99,,2013-06-17 08:43:00,
2013-06-17 04:53:00,68.0,65.0,29.90,WNW,298,0.0,-999.0,89,-99.99,,,-99.99,,2013-06-17 08:53:00,
2013-06-17 05:02:00,68.0,65.0,29.91,WNW,298,0.0,-999.0,89,-99.99,,,-99.99,,2013-06-17 09:02:00,
2013-06-17 05:12:00,68.0,65.0,29.91,WNW,298,0.0,-999.0,89,-99.99,,,-99.99,,2013-06-17 09:12:00,
2013-06-17 05:22:00,67.0,64.0,29.91,WNW,298,0.0,-999.0,90,-99.99,,,-99.99,,2013-06-17 09:22:00,
2013-06-17 05:34:00,67.0,64.0,29.91,WNW,298,0.0,-999.0,90,-99.99,,,-99.99,,2013-06-17 09:34:00,
2013-06-17 05:44:00,67.0,64.0,29.92,WNW,298,0.0,-999.0,90,-99.99,,,-99.99,,2013-06-17 09:44:00,
2013-06-17 05:52:00,67.0,64.0,29.92,WNW,298,0.0,-999.0,91,-99.99,,,-99.99,,2013-06-17 09:52:00,
2013-06-17 06:02:00,67.0,64.0,29.92,WNW,298,0.0,-999.0,91,-99.99,,,-99.99,,2013-06-17 10:02:00,
2013-06-17 06:12:00,67.0,64.0,29.92,WNW,298,0.0,-999.0,91,-99.99,,,-99.99,,2013-06-17 10:12:00,
2013-06-17 06:22:00,67.0,64.0,29.93,WNW,298,0.0,-999.0,90,-99.99,,,-99.99,,2013-06-17 10:22:00,
2013-06-17 06:33:00,67.0,64.0,29.92,WNW,298,0.0,-999.0,90,-99.99,,,-99.99,,2013-06-17 10:33:00,
2013-06-17 06:43:00,67.0,64.0,29.92,WNW,298,0.0,-999.0,90,-99.99,,,-99.99,,2013-06-17 10:43:00,
2013-06-17 06:53:00,67.0,64.0,29.92,West,275,0.0,-999.0,90,-99.99,,,-99.99,,2013-06-17 10:53:00,
2013-06-17 07:02:00,68.0,65.0,29.92,West,275,0.0,-999.0,90,-99.99,,,-99.99,,2013-06-17 11:02:00,
2013-06-17 07:12:00,68.0,65.0,29.93,WNW,286,0.0,-999.0,90,-99.99,,,-99.99,,2013-06-17 11:12:00,
2013-06-17 07:23:00,68.0,65.0,29.93,WNW,286,0.0,-999.0,90,-99.99,,,-99.99,,2013-06-17 11:23:00,
2013-06-17 07:33:00,69.0,66.0,29.93,WNW,286,0.0,-999.0,89,-99.99,,,-99.99,,2013-06-17 11:33:00,
2013-06-17 07:43:00,68.0,65.0,29.93,WNW,286,0.0,-999.0,89,-99.99,,,-99.99,,2013-06-17 11:43:00,
2013-06-17 07:53:00,69.0,66.0,29.93,WNW,286,0.0,-999.0,89,-99.99,,,-99.99,,2013-06-17 11:53:00,
2013-06-17 08:02:00,69.0,66.0,29.93,WNW,286,0.0,-999.0,90,-99.99,,,-99.99,,2013-06-17 12:02:00,
2013-06-17 08:12:00,69.0,65.0,29.94,SSW,207,0.0,-999.0,88,-99.99,,,-99.99,,2013-06-17 12:12:00,
2013-06-17 08:23:00,70.0,66.0,29.94,NW,310,0.0,-999.0,87,-99.99,,,-99.99,,2013-06-17 12:23:00,
2013-06-17 08:33:00,71.0,67.0,29.94,NW,313,0.0,-999.0,86,-99.99,,,-99.99,,2013-06-17 12:33:00,
2013-06-17 08:43:00,71.0,66.0,29.94,WSW,241,0.0,-999.0,85,-99.99,,,-99.99,,2013-06-17 12:43:00,
2013-06-17 08:53:00,72.0,67.0,29.94,NNW,338,0.0,-999.0,84,-99.99,,,-99.99,,2013-06-17 12:53:00,
2013-06-17 09:02:00,72.0,66.0,29.94,NW,321,0.0,-999.0,82,-99.99,,,-99.99,,2013-06-17 13:02:00,
2013-06-17 09:12:00,72.0,66.0,29.94,SW,215,0.0,-999.0,82,-99.99,,,-99.99,,2013-06-17 13:12:00,
2013-06-17 09:22:00,73.0,67.0,29.94,WNW,302,0.0,-999.0,81,-99.99,,,-99.99,,2013-06-17 13:22:00,
2013-06-17 09:32:00,73.0,66.0,29.94,NNW,331,1.0,-999.0,80,-99.99,,,-99.99,,2013-06-17 13:32:00,
2013-06-17 09:43:00,74.0,67.0,29.94,NW,319,1.0,-999.0,79,-99.99,,,-99.99,,2013-06-17 13:43:00,
2013-06-17 09:52:00,74.0,66.0,29.94,NW,309,0.0,-999.0,77,-99.99,,,-99.99,,2013-06-17 13:52:00,
2013-06-17 10:02:00,75.0,67.0,29.93,NNW,327,0.0,-999.0,76,-99.99,,,-99.99,,2013-06-17 14:02:00,
2013-06-17 10:12:00,75.0,66.0,29.93,WSW,242,0.0,-999.0,74,-99.99,,,-99.99,,2013-06-17 14:12:00,
2013-06-17 10:22:00,76.0,67.0,29.93,SE,146,0.0,-999.0,74,-99.99,,,-99.99,,2013-06-17 14:22:00,
2013-06-17 10:34:00,76.0,67.0,29.93,NW,313,0.0,-999.0,73,-99.99,,,-99.99,,2013-06-17 14:34:00,
2013-06-17 10:43:00,76.0,66.0,29.92,NW,321,1.0,-999.0,71,-99.99,,,-99.99,,2013-06-17 14:43:00,
2013-06-17 10:53:00,77.0,67.0,29.92,WNW,286,0.0,-999.0,72,-99.99,,,-99.99,,2013-06-17 14:53:00,
2013-06-17 11:02:00,77.0,67.0,29.91,WNW,299,0.0,-999.0,72,-99.99,,,-99.99,,2013-06-17 15:02:00,
2013-06-17 11:12:00,78.0,67.0,29.91,North,351,0.0,-999.0,68,-99.99,,,-99.99,,2013-06-17 15:12:00,
2013-06-17 11:22:00,78.0,67.0,29.91,NW,319,0.0,-999.0,68,-99.99,,,-99.99,,2013-06-17 15:22:00,
2013-06-17 11:33:00,79.0,68.0,29.91,NNW,344,0.0,-999.0,68,-99.99,,,-99.99,,2013-06-17 15:33:00,
2013-06-17 11:43:00,79.0,68.0,29.91,NNW,329,1.0,-999.0,68,-99.99,,,-99.99,,2013-06-17 15:43:00,
2013-06-17 11:52:00,80.0,68.0,29.91,SSW,207,0.0,-999.0,66,-99.99,,,-99.99,,2013-06-17 15:52:00,
2013-06-17 12:02:00,80.0,67.0,29.91,SSW,201,0.0,-999.0,65,-99.99,,,-99.99,,2013-06-17 16:02:00,
2013-06-17 12:12:00,82.0,69.0,29.91,NW,308,0.0,-999.0,65,-99.99,,,-99.99,,2013-06-17 16:12:00,
2013-06-17 12:22:00,83.0,68.0,29.91,NNW,348,1.0,-999.0,61,-99.99,,,-99.99,,2013-06-17 16:22:00,
2013-06-17 12:33:00,83.0,69.0,29.91,WSW,252,0.0,-999.0,62,-99.99,,,-99.99,,2013-06-17 16:33:00,
2013-06-17 12:43:00,83.0,67.0,29.91,North,9,0.0,-999.0,59,-99.99,,,-99.99,,2013-06-17 16:43:00,
2013-06-17 12:53:00,83.0,69.0,29.91,NNW,327,0.0,-999.0,62,-99.99,,,-99.99,,2013-06-17 16:53:00,
2013-06-17 13:02:00,83.0,69.0,29.91,NNW,329,0.0,-999.0,63,-99.99,,,-99.99,,2013-06-17 17:02:00,
2013-06-17 13:12:00,84.0,68.0,29.91,SW,223,0.0,-999.0,59,-99.99,,,-99.99,,2013-06-17 17:12:00,
2013-06-17 13:22:00,85.0,68.0,29.91,NW,324,0.0,-999.0,57,-99.99,,,-99.99,,2013-06-17 17:22:00,
2013-06-17 13:33:00,85.0,68.0,29.91,NW,324,0.0,-999.0,57,-99.99,,,-99.99,,2013-06-17 17:33:00,
2013-06-17 13:43:00,85.0,68.0,29.90,NW,304,1.0,-999.0,56,-99.99,,,-99.99,,2013-06-17 17:43:00,
2013-06-17 13:52:00,85.0,69.0,29.90,NNW,333,1.0,-999.0,58,-99.99,,,-99.99,,2013-06-17 17:52:00,
2013-06-17 14:02:00,86.0,68.0,29.90,NW,316,1.0,-999.0,56,-99.99,,,-99.99,,2013-06-17 18:02:00,
2013-06-17 14:12:00,86.0,68.0,29.89,NW,313,1.0,-999.0,56,-99.99,,,-99.99,,2013-06-17 18:12:00,
2013-06-17 14:23:00,86.0,67.0,29.89,West,272,1.0,-999.0,54,-99.99,,,-99.99,,2013-06-17 18:23:00,
2013-06-17 14:33:00,86.0,67.0,29.90,WSW,254,1.0,-999.0,54,-99.99,,,-99.99,,2013-06-17 18:33:00,
2013-06-17 14:43:00,85.0,66.0,29.89,ENE,62,0.0,-999.0,54,-99.99,,,-99.99,,2013-06-17 18:43:00,
2013-06-17 14:53:00,85.0,67.0,29.89,NW,321,1.0,-999.0,55,-99.99,,,-99.99,,2013-06-17 18:53:00,
2013-06-17 15:02:00,84.0,68.0,29.89,West,267,0.0,-999.0,58,-99.99,,,-99.99,,2013-06-17 19:02:00,
2013-06-17 15:12:00,86.0,68.0,29.88,NW,314,0.0,-999.0,55,-99.99,,,-99.99,,2013-06-17 19:12:00,
2013-06-17 15:22:00,86.0,68.0,29.88,NNW,344,0.0,-999.0,55,-99.99,,,-99.99,,2013-06-17 19:22:00,
2013-06-17 15:33:00,86.0,68.0,29.88,SW,217,1.0,-999.0,55,-99.99,,,-99.99,,2013-06-17 19:33:00,
2013-06-17 15:43:00,87.0,68.0,29.88,NE,36,1.0,-999.0,54,-99.99,,,-99.99,,2013-06-17 19:43:00,
2013-06-17 15:53:00,87.0,68.0,29.88,NNW,329,1.0,-999.0,54,-99.99,,,-99.99,,2013-06-17 19:53:00,
2013-06-17 16:02:00,87.0,67.0,29.87,NNW,329,0.0,-999.0,51,-99.99,,,-99.99,,2013-06-17 20:02:00,
2013-06-17 16:11:00,87.0,67.0,29.87,NNW,331,0.0,-999.0,52,-99.99,,,-99.99,,2013-06-17 20:11:00,
2013-06-17 16:22:00,88.0,68.0,29.87,West,271,0.0,-999.0,51,-99.99,,,-99.99,,2013-06-17 20:22:00,
2013-06-17 16:34:00,88.0,69.0,29.87,North,350,1.0,-999.0,53,-99.99,,,-99.99,,2013-06-17 20:34:00,
2013-06-17 16:43:00,86.0,67.0,29.88,NW,321,0.0,-999.0,53,-99.99,,,-99.99,,2013-06-17 20:43:00,
2013-06-17 16:52:00,84.0,67.0,29.87,SW,217,0.0,-999.0,57,-99.99,,,-99.99,,2013-06-17 20:52:00,
2013-06-17 17:02:00,83.0,69.0,29.86,ESE,117,0.0,-999.0,62,-99.99,,,-99.99,,2013-06-17 21:02:00,
2013-06-17 17:12:00,82.0,68.0,29.85,ESE,123,0.0,-999.0,62,-99.99,,,-99.99,,2013-06-17 21:12:00,
2013-06-17 17:22:00,83.0,70.0,29.86,WSW,253,0.0,-999.0,65,-99.99,,,-99.99,,2013-06-17 21:22:00,
2013-06-17 17:33:00,84.0,69.0,29.86,WNW,295,0.0,-999.0,61,-99.99,,,-99.99,,2013-06-17 21:33:00,
2013-06-17 17:43:00,85.0,70.0,29.86,NNW,344,0.0,-999.0,60,-99.99,,,-99.99,,2013-06-17 21:43:00,
2013-06-17 17:52:00,85.0,70.0,29.86,NNW,344,0.0,-999.0,60,-99.99,,,-99.99,,2013-06-17 21:52:00,
2013-06-17 18:01:00,85.0,68.0,29.86,NW,304,1.0,-999.0,56,-99.99,,,-99.99,,2013-06-17 22:01:00,
2013-06-17 18:11:00,85.0,68.0,29.87,SSW,211,0.0,-999.0,57,-99.99,,,-99.99,,2013-06-17 22:11:00,
2013-06-17 18:22:00,84.0,69.0,29.87,SW,225,0.0,-999.0,60,-99.99,,,-99.99,,2013-06-17 22:22:00,
2013-06-17 18:34:00,83.0,69.0,29.87,NE,34,0.0,-999.0,62,-99.99,,,-99.99,,2013-06-17 22:34:00,
2013-06-17 18:43:00,83.0,70.0,29.87,North,355,0.0,-999.0,64,-99.99,,,-99.99,,2013-06-17 22:43:00,
2013-06-17 18:53:00,82.0,69.0,29.88,SSW,192,0.0,-999.0,64,-99.99,,,-99.99,,2013-06-17 22:53:00,
2013-06-17 19:02:00,81.0,69.0,29.87,SSE,150,0.0,-999.0,67,-99.99,,,-99.99,,2013-06-17 23:02:00,
2013-06-17 19:11:00,81.0,68.0,29.87,SSE,149,0.0,-999.0,64,-99.99,,,-99.99,,2013-06-17 23:11:00,
2013-06-17 19:22:00,80.0,69.0,29.88,SSE,149,0.0,-999.0,69,-99.99,,,-99.99,,2013-06-17 23:22:00,
2013-06-17 19:33:00,79.0,67.0,29.88,West,271,0.0,-999.0,66,-99.99,,,-99.99,,2013-06-17 23:33:00,
2013-06-17 19:43:00,79.0,68.0,29.89,NNW,337,0.0,-999.0,69,-99.99,,,-99.99,,2013-06-17 23:43:00,
2013-06-17 19:53:00,79.0,68.0,29.89,West,275,0.0,-999.0,69,-99.99,,,-99.99,,2013-06-17 23:53:00,
2013-06-17 20:01:00,78.0,67.0,29.89,North,5,0.0,-999.0,68,-99.99,,,-99.99,,2013-06-18 00:01:00,
2013-06-17 20:12:00,78.0,67.0,29.89,North,5,0.0,-999.0,68,-99.99,,,-99.99,,2013-06-18 00:12:00,
2013-06-17 20:22:00,77.0,65.0,29.90,WNW,300,0.0,-999.0,67,-99.99,,,-99.99,,2013-06-18 00:22:00,
2013-06-17 20:33:00,77.0,66.0,29.90,WSW,254,0.0,-999.0,68,-99.99,,,-99.99,,2013-06-18 00:33:00,
2013-06-17 20:43:00,76.0,65.0,29.90,WSW,255,0.0,-999.0,68,-99.99,,,-99.99,,2013-06-18 00:43:00,
2013-06-17 20:52:00,75.0,64.0,29.90,West,276,0.0,-999.0,69,-99.99,,,-99.99,,2013-06-18 00:52:00,
2013-06-17 21:01:00,75.0,65.0,29.90,West,276,0.0,-999.0,71,-99.99,,,-99.99,,2013-06-18 01:01:00,
2013-06-17 21:12:00,74.0,65.0,29.90,West,276,0.0,-999.0,73,-99.99,,,-99.99,,2013-06-18 01:12:00,
2013-06-17 21:23:00,74.0,66.0,29.90,West,276,0.0,-999.0,75,-99.99,,,-99.99,,2013-06-18 01:23:00,
2013-06-17 21:34:00,73.0,65.0,29.90,West,275,0.0,-999.0,76,-99.99,,,-99.99,,2013-06-18 01:34:00,
2013-06-17 21:44:00,73.0,65.0,29.90,West,276,0.0,-999.0,77,-99.99,,,-99.99,,2013-06-18 01:44:00,
2013-06-17 21:53:00,72.0,65.0,29.91,West,276,0.0,-999.0,78,-99.99,,,-99.99,,2013-06-18 01:53:00,
2013-06-17 22:02:00,72.0,65.0,29.91,West,276,0.0,-999.0,79,-99.99,,,-99.99,,2013-06-18 02:02:00,
2013-06-17 22:12:00,72.0,65.0,29.92,West,276,0.0,-999.0,80,-99.99,,,-99.99,,2013-06-18 02:12:00,
2013-06-17 22:22:00,71.0,65.0,29.93,West,276,0.0,-999.0,81,-99.99,,,-99.99,,2013-06-18 02:22:00,
2013-06-17 22:34:00,71.0,65.0,29.93,West,276,0.0,-999.0,82,-99.99,,,-99.99,,2013-06-18 02:34:00,
2013-06-17 22:43:00,71.0,66.0,29.93,North,355,0.0,-999.0,83,-99.99,,,-99.99,,2013-06-18 02:43:00,
2013-06-17 22:53:00,70.0,65.0,29.93,WNW,298,0.0,-999.0,83,-99.99,,,-99.99,,2013-06-18 02:53:00,
2013-06-17 23:02:00,70.0,65.0,29.93,WSW,250,0.0,-999.0,84,-99.99,,,-99.99,,2013-06-18 03:02:00,
2013-06-17 23:12:00,70.0,65.0,29.93,North,5,0.0,-999.0,84,-99.99,,,-99.99,,2013-06-18 03:12:00,
2013-06-17 23:23:00,70.0,65.0,29.93,WNW,296,0.0,-999.0,85,-99.99,,,-99.99,,2013-06-18 03:23:00,
2013-06-17 23:34:00,70.0,65.0,29.93,WNW,289,0.0,-999.0,85,-99.99,,,-99.99,,2013-06-18 03:34:00,
2013-06-17 23:43:00,70.0,65.0,29.93,WNW,289,0.0,-999.0,85,-99.99,,,-99.99,,2013-06-18 03:43:00,
2013-06-17 23:53:00,70.0,65.0,29.93,WNW,289,0.0,-999.0,85,-99.99,,,-99.99,,2013-06-18 03:53:00,